Weather History for Rome, OR

Change the Weather History Date:

Thursday, February 21, 2013

  Actual Average Record
Temperature  
Mean Temperature 30 °F 35 °F  
Max Temperature 42 °F 47 °F 63 °F (1991)
Min Temperature 17 °F 23 °F 14 °F (1955)
Degree Days  
Heating Degree Days 35 30  
Month to date heating degree days 640 679  
Since 1 July heating degree days 4432 4528  
Cooling Degree Days 0 0  
Month to date cooling degree days 0 0  
Year to date cooling degree days 0 0  
Moisture  
Dew Point 19 °F    
Average Humidity 65    
Maximum Humidity 92    
Minimum Humidity 37    
Precipitation  
Precipitation 0.00 in 0.02 in 0.72 in (1948)
Month to date precipitation 0.14 0.55  
Year to date precipitation 0.69 1.20  
Sea Level Pressure  
Sea Level Pressure 30.09 in    
Wind  
Wind Speed 7 mph (SSW)    
Max Wind Speed 17 mph    
Max Gust Speed 24 mph    
T = Trace of Precipitation, MM = Missing Value Source: NWS Daily Summary

Daily Weather History Graph

Daily Weather History Graph

Search for Another Location

Airport:

Trip Planner

Search our weather history database for the weather conditions in past years. The results will help you decide how hot, cold, wet, or windy it might be!

Date:

Astronomy

Feb. 21, 2013 Rise Set
Actual Time 6:39 AM PST 5:31 PM PST
Civil Twilight 6:10 AM PST 6:00 PM PST
Nautical Twilight 5:37 AM PST 6:32 PM PST
Astronomical Twilight 5:05 AM PST 7:05 PM PST
Moon 1:47 PM PST (2/21) 3:50 AM PST (2/21)
Length of Visible Light 11h 49m
Length of Day
10h 52m
Waxing Gibbous, 84% of the Moon is Illuminated
Feb 21
Waxing Gibbous
Feb 25
Full
Mar 4
Last Quarter
Mar 11
New
Mar 19
First Quarter

Hourly Weather History & Observations

Time (PST) Temp. Windchill Dew Point Humidity Pressure Visibility Wind Dir Wind Speed Gust Speed Precip Events Conditions
12:52 AM 27.0 °F - 19.0 °F 72% 30.00 in - Calm Calm - N/A   Unknown
1:52 AM 24.1 °F 18.2 °F 18.0 °F 77% 30.01 in - SE 4.6 mph - N/A   Unknown
2:52 AM 21.9 °F 13.4 °F 18.0 °F 85% 30.02 in - South 6.9 mph - N/A   Unknown
3:52 AM 24.1 °F 15.2 °F 21.0 °F 88% 30.03 in - SSW 8.1 mph - N/A   Unknown
4:52 AM 19.0 °F 9.0 °F 16.0 °F 88% 30.06 in - South 8.1 mph - N/A   Unknown
6:52 AM 21.9 °F 14.5 °F 19.0 °F 89% 30.12 in - SSE 5.8 mph - N/A   Unknown
7:52 AM 28.0 °F 22.8 °F 23.0 °F 81% 30.13 in - SW 4.6 mph - N/A   Unknown
8:52 AM 33.1 °F 25.5 °F 23.0 °F 66% 30.13 in - WSW 9.2 mph - N/A   Unknown
9:52 AM 34.0 °F 29.8 °F 21.0 °F 59% 30.11 in - Variable 4.6 mph - N/A   Unknown
10:52 AM 36.0 °F 29.0 °F 19.9 °F 52% 30.11 in - WSW 9.2 mph - N/A   Unknown
11:52 AM 37.0 °F 29.8 °F 19.0 °F 48% 30.10 in - SW 10.4 mph - N/A   Unknown
12:52 PM 37.0 °F 28.5 °F 19.0 °F 48% 30.09 in - SW 13.8 mph 20.7 mph N/A   Unknown
1:52 PM 39.0 °F 31.0 °F 17.1 °F 41% 30.08 in - SW 13.8 mph 19.6 mph N/A   Unknown
2:52 PM 39.9 °F 33.9 °F 15.1 °F 36% 30.07 in - SW 9.2 mph 17.3 mph N/A   Unknown
3:52 PM 39.0 °F 31.0 °F 17.1 °F 41% 30.06 in - SW 13.8 mph - N/A   Unknown
4:52 PM 37.0 °F 31.0 °F 16.0 °F 42% 30.10 in - West 8.1 mph - N/A   Unknown
5:52 PM 35.1 °F 28.6 °F 18.0 °F 50% 30.12 in - SSW 8.1 mph - N/A   Unknown
6:52 PM 34.0 °F 28.8 °F 19.0 °F 54% 30.12 in - SSE 5.8 mph - N/A   Unknown
7:52 PM 33.1 °F 26.9 °F 19.9 °F 59% 30.12 in - South 6.9 mph - N/A   Unknown
8:52 PM 30.9 °F 27.5 °F 19.0 °F 61% 30.12 in - South 3.5 mph - N/A   Unknown
9:52 PM 30.9 °F - 19.0 °F 61% 30.13 in - Calm Calm - N/A   Unknown
10:52 PM 28.0 °F 20.8 °F 21.0 °F 75% 30.14 in - South 6.9 mph - N/A   Unknown
11:52 PM 27.0 °F 19.5 °F 21.0 °F 78% 30.14 in - South 6.9 mph - N/A   Unknown